STARLINK-5678, 55460

Orbit data source: Space-Track

STARLINK-5678, 55460 is a payload satellite owned by SpaceX/Seattle (US) in LEO that was launched on Thu, 02 Feb 2023 UTC via an FALCON 9 launch vehicle from the Air Force Eastern Test Range (AFETR). Payload-class satellites include a variety of spacecraft equipped with specific instruments for various scientific and technological missions. These include communications satellites like Starlink; space stations such as the ISS; scientific satellites like the Hubble; Earth observation satellites from companies like Planet Labs, Umbra, and HawkEye 360; GPS; miniature CubeSats for education and research; and military/defense satellites.

Loading next visibility...
Identifier
55460, 2023-015M
Orbit
LEO
Country
Flag of USUS
Related business
Manufacturer
SpaceX/Seattle
Mission
Operational Commercial Communications
Bus & Motor
STARLINK, Unknown motor
Mass
305 kg wet, ~290 kg dry
Launch date (UTC)
2023-02-02 (3 years ago)
Launch vehicle
FALCON 9
Launch site
Air Force Eastern Test Range (AFETR)
Object type
Payload
Rocket body
Debris
Shape & HBR
Box + 1 Pan, 10.1 m
Radar Cross Section
13.562 m², Large (>1 m²)

Expand to show TLE details & history
Last TLE update: 13 hours ago

TLE from 13 hours ago
0 STARLINK-5678
1 55460U 23015M   26132.52549669  .00000773  00000-0  37609-4 0  9997
2 55460  43.0039 328.3207 0001688 275.1561  84.9098 15.27580036180482
Epoch: 2026-05-12T12:36Z
TLE epoch observation values (Epoch: 2026-05-12T12:36:42.914Z)
Latitude
-0°
Longitude
-91.15673°
Altitude
482.722 km
Speed
7.626 km/s
True Right ascension
21h 53m 16s
True Declination
0° 00' 00"
Sunlit
Object was in daylight at epoch
Visualization orbit readout
Latitude
Unknown
Longitude
Unknown
Altitude
Unknown
Speed
Unknown
Apparent Right ascension
Unknown
Apparent Declination
Unknown
Sunlit
N/A
Visualization observer readout
Local Sidereal Time
09:31:51
Azimuth
Unknown
Elevation
Unknown
Doppler factor
Unknown
Orbital elements
Apogee altitude
486.152 km
Perigee altitude
483.835 km
Semi-major axis
6,863.131 km
Eccentricity
0.00017
Inclination
43.0039°
RAAN
328.3207°
Arg. of periapsis
275.1561°
True anomaly
84.92907°
Mean anomaly
84.9098°
Eccentric anomaly
84.91943°
Mean motion
3.81733 °/min
Orbital period
94.31 mins
BSTAR
0.000037609
Loading maneuver chart data...
Computing Atmospheric mass density...
Loading historical data...
Loading historical data...
Loading historical data...
Loading historical data...
Loading historical data...
Loading historical data...
Loading historical data...

Documentation

Showing up to 5 results
|